• In Hungary
  • List of Countries
  • For 7 days
  • Water Temperature
  • Satellite Maps
  • Weather Map
  • News
  • Weather Widgets
  • user-avatar
    Login

    Hourly Weather Chuprovo

    Today, 16 July, Monday

    Time Temperature Precipitation Wind Pressure Humidity
    00:00 +20°C° 0.3 mm 1 mps 753 mmHg 93%
    01:00 +19°C° 0.7 mm 1 mps 754 mmHg 94%
    02:00 +19°C° 0.7 mm 1 mps 754 mmHg 95%
    03:00 +19°C° 0 mm 1 mps 754 mmHg 96%
    04:00 +20°C° 0 mm 1 mps 754 mmHg 93%
    05:00 +21°C° 0 mm 1 mps 754 mmHg 91%
    06:00 +21°C° 0 mm 1 mps 754 mmHg 89%
    07:00 +23°C° 0 mm 1 mps 754 mmHg 78%
    08:00 +25°C° 0 mm 1 mps 754 mmHg 67%
    09:00 +26°C° 0 mm 1 mps 755 mmHg 59%
    10:00 +27°C° 0 mm 2 mps 755 mmHg 53%
    11:00 +27°C° 0 mm 2 mps 755 mmHg 47%
    12:00 +28°C° 0 mm 2 mps 755 mmHg 41%
    13:00 +29°C° 0 mm 2 mps 754 mmHg 39%
    14:00 +29°C° 0 mm 2 mps 754 mmHg 39%
    15:00 +29°C° 0 mm 2 mps 754 mmHg 39%
    16:00 +29°C° 0 mm 2 mps 754 mmHg 40%
    17:00 +29°C° 0 mm 2 mps 755 mmHg 42%
    18:00 +28°C° 0 mm 2 mps 755 mmHg 44%
    19:00 +27°C° 0 mm 2 mps 755 mmHg 51%
    20:00 +25°C° 0 mm 1 mps 755 mmHg 58%
    21:00 +23°C° 0 mm 1 mps 755 mmHg 65%
    22:00 +22°C° 0 mm 1 mps 756 mmHg 68%
    23:00 +21°C° 0 mm 1 mps 756 mmHg 72%

    Tomorrow, 17 July, Tuesday

    Time Temperature Precipitation Wind Pressure Humidity
    00:00 +20°C° 0 mm 1 mps 756 mmHg 75%
    01:00 +19°C° 0 mm 1 mps 757 mmHg 78%
    02:00 +17°C° 0 mm 2 mps 757 mmHg 82%
    03:00 +17°C° 0 mm 2 mps 758 mmHg 85%
    04:00 +18°C° 0 mm 2 mps 758 mmHg 82%
    05:00 +18°C° 0 mm 3 mps 758 mmHg 78%
    06:00 +19°C° 0 mm 3 mps 758 mmHg 74%
    07:00 +20°C° 0 mm 3 mps 759 mmHg 68%
    08:00 +22°C° 0 mm 3 mps 759 mmHg 62%
    09:00 +24°C° 0 mm 3 mps 759 mmHg 55%
    10:00 +25°C° 0 mm 4 mps 759 mmHg 51%
    11:00 +25°C° 0 mm 4 mps 759 mmHg 48%
    12:00 +26°C° 0 mm 4 mps 759 mmHg 44%
    13:00 +26°C° 0 mm 4 mps 759 mmHg 43%
    14:00 +26°C° 0 mm 4 mps 759 mmHg 41%
    15:00 +27°C° 0 mm 4 mps 759 mmHg 40%
    16:00 +26°C° 0 mm 4 mps 759 mmHg 42%
    17:00 +25°C° 0 mm 4 mps 759 mmHg 44%
    18:00 +25°C° 0 mm 4 mps 760 mmHg 46%
    19:00 +22°C° 0 mm 4 mps 760 mmHg 52%
    20:00 +20°C° 0 mm 3 mps 760 mmHg 58%
    21:00 +19°C° 0 mm 3 mps 760 mmHg 65%
    22:00 +17°C° 0 mm 3 mps 761 mmHg 69%
    23:00 +16°C° 0 mm 3 mps 761 mmHg 74%

    Day after tomorrow, 18 July, Wednesday

    Time Temperature Precipitation Wind Pressure Humidity
    00:00 +14°C° 0 mm 3 mps 761 mmHg 79%
    01:00 +14°C° 0 mm 3 mps 761 mmHg 82%
    02:00 +13°C° 0 mm 3 mps 762 mmHg 85%
    03:00 +14°C° 0 mm 2 mps 762 mmHg 88%
    04:00 +15°C° 0 mm 2 mps 762 mmHg 83%
    05:00 +16°C° 0 mm 2 mps 762 mmHg 79%
    06:00 +17°C° 0 mm 2 mps 762 mmHg 74%
    07:00 +19°C° 0 mm 2 mps 762 mmHg 67%
    08:00 +21°C° 0 mm 3 mps 762 mmHg 60%
    09:00 +22°C° 0 mm 3 mps 762 mmHg 53%
    10:00 +24°C° 0 mm 3 mps 762 mmHg 49%
    11:00 +25°C° 0 mm 3 mps 761 mmHg 44%
    12:00 +26°C° 0 mm 3 mps 761 mmHg 40%
    13:00 +27°C° 0 mm 3 mps 761 mmHg 38%
    14:00 +27°C° 0 mm 4 mps 761 mmHg 36%
    15:00 +28°C° 0 mm 4 mps 760 mmHg 34%
    16:00 +28°C° 0 mm 4 mps 760 mmHg 35%
    17:00 +27°C° 0 mm 4 mps 760 mmHg 36%
    18:00 +27°C° 0 mm 3 mps 760 mmHg 38%
    19:00 +25°C° 0 mm 3 mps 761 mmHg 45%
    20:00 +22°C° 0 mm 3 mps 761 mmHg 52%
    21:00 +20°C° 0 mm 2 mps 761 mmHg 60%
    22:00 +19°C° 0 mm 2 mps 761 mmHg 62%
    23:00 +18°C° 0 mm 2 mps 761 mmHg 65%

    19 July, Thursday

    Time Temperature Precipitation Wind Pressure Humidity
    00:00 +17°C° 0 mm 2 mps 761 mmHg 68%
    01:00 +16°C° 0 mm 2 mps 761 mmHg 70%
    02:00 +16°C° 0 mm 2 mps 762 mmHg 72%
    03:00 +15°C° 0 mm 2 mps 762 mmHg 74%
    04:00 +17°C° 0 mm 2 mps 762 mmHg 68%
    05:00 +18°C° 0 mm 2 mps 762 mmHg 63%
    06:00 +20°C° 0 mm 3 mps 762 mmHg 58%
    07:00 +21°C° 0 mm 3 mps 762 mmHg 52%
    08:00 +24°C° 0 mm 3 mps 762 mmHg 45%
    09:00 +26°C° 0 mm 4 mps 761 mmHg 39%
    10:00 +27°C° 0 mm 4 mps 761 mmHg 37%
    11:00 +28°C° 0 mm 4 mps 761 mmHg 36%
    12:00 +30°C° 0 mm 4 mps 761 mmHg 34%
    13:00 +30°C° 0 mm 4 mps 761 mmHg 34%
    14:00 +32°C° 0 mm 4 mps 760 mmHg 33%
    15:00 +32°C° 0 mm 4 mps 760 mmHg 32%
    16:00 +31°C° 0 mm 3 mps 760 mmHg 34%
    17:00 +30°C° 0 mm 3 mps 760 mmHg 35%
    18:00 +30°C° 0 mm 3 mps 760 mmHg 37%
    19:00 +28°C° 0 mm 3 mps 760 mmHg 45%
    20:00 +26°C° 0 mm 2 mps 760 mmHg 53%
    21:00 +23°C° 0 mm 2 mps 760 mmHg 61%
    22:00 +21°C° 0 mm 2 mps 761 mmHg 64%
    23:00 +20°C° 0 mm 2 mps 761 mmHg 66%

    20 July, Friday

    Time Temperature Precipitation Wind Pressure Humidity
    00:00 +19°C° 0 mm 2 mps 761 mmHg 69%
    01:00 +19°C° 0 mm 2 mps 761 mmHg 72%
    02:00 +18°C° 0 mm 2 mps 761 mmHg 75%
    03:00 +17°C° 0 mm 2 mps 762 mmHg 78%
    04:00 +19°C° 0 mm 2 mps 762 mmHg 74%
    05:00 +20°C° 0 mm 2 mps 762 mmHg 70%
    06:00 +21°C° 0 mm 3 mps 762 mmHg 65%
    07:00 +24°C° 0 mm 3 mps 762 mmHg 59%
    08:00 +26°C° 0 mm 3 mps 761 mmHg 52%
    09:00 +28°C° 0 mm 4 mps 761 mmHg 45%
    10:00 +29°C° 0 mm 3 mps 761 mmHg 41%
    11:00 +30°C° 0 mm 3 mps 761 mmHg 38%
    12:00 +31°C° 0 mm 3 mps 761 mmHg 35%
    13:00 +31°C° 0 mm 3 mps 761 mmHg 34%
    14:00 +31°C° 0 mm 3 mps 760 mmHg 33%
    15:00 +33°C° 0 mm 3 mps 760 mmHg 32%
    16:00 +31°C° 0 mm 3 mps 760 mmHg 33%
    17:00 +31°C° 0 mm 3 mps 760 mmHg 35%
    18:00 +30°C° 0 mm 3 mps 760 mmHg 37%
    19:00 +28°C° 0 mm 3 mps 760 mmHg 43%
    20:00 +26°C° 0 mm 3 mps 760 mmHg 50%
    21:00 +24°C° 0 mm 3 mps 760 mmHg 57%
    22:00 +22°C° 0 mm 3 mps 760 mmHg 59%
    23:00 +21°C° 0 mm 3 mps 760 mmHg 60%

    21 July, Saturday

    Time Temperature Precipitation Wind Pressure Humidity
    00:00 +20°C° 0 mm 3 mps 761 mmHg 61%
    01:00 +20°C° 0 mm 3 mps 761 mmHg 63%
    02:00 +19°C° 0 mm 3 mps 761 mmHg 65%
    03:00 +18°C° 0 mm 3 mps 761 mmHg 67%
    04:00 +19°C° 0 mm 3 mps 761 mmHg 64%
    05:00 +20°C° 0 mm 3 mps 761 mmHg 61%
    06:00 +21°C° 0 mm 3 mps 761 mmHg 59%
    07:00 +24°C° 0 mm 3 mps 760 mmHg 54%
    08:00 +26°C° 0 mm 3 mps 760 mmHg 49%
    09:00 +27°C° 0 mm 3 mps 760 mmHg 44%
    10:00 +29°C° 0 mm 3 mps 760 mmHg 40%
    11:00 +30°C° 0 mm 3 mps 759 mmHg 36%
    12:00 +32°C° 0 mm 4 mps 759 mmHg 33%
    13:00 +33°C° 0 mm 4 mps 759 mmHg 32%
    14:00 +33°C° 0 mm 4 mps 758 mmHg 31%
    15:00 +33°C° 0 mm 4 mps 758 mmHg 30%
    16:00 +33°C° 0 mm 4 mps 758 mmHg 32%
    17:00 +31°C° 0 mm 3 mps 758 mmHg 34%
    18:00 +31°C° 0 mm 3 mps 758 mmHg 36%
    19:00 +29°C° 0 mm 3 mps 758 mmHg 43%
    20:00 +27°C° 0 mm 3 mps 758 mmHg 50%
    21:00 +25°C° 0 mm 2 mps 758 mmHg 57%
    22:00 +24°C° 0 mm 2 mps 758 mmHg 59%
    23:00 +24°C° 0 mm 2 mps 758 mmHg 62%
    Show more